sat.trackr.live / text

‹ back to catalog

NORSAT 4

NORAD 62702 · 2025-009CX

PAYLOAD ACTIVE UNKNOWN

§ Identity

Operator
Country
NOR
Launch date
2025-01-14
Launch site
AFWTR
Launch vehicle
Mass (kg)
RCS (m²)

External: N2YO · Heavens-Above · Gunter

§ Orbital elements

Epoch: 2026-05-25T03:42:18.423360Z

Period
96.32 min
Inclination
97.7046°
Eccentricity
0.0003154
Mean motion
14.94943725 rev/d
Perigee alt
580.4 km
Apogee alt
584.7 km
Semi-major
6,960.7 km
B*
1.6395e-4
RAAN
224.2640°
Arg perigee
106.3322°
Mean anomaly
253.8246°
Rev number
7,392

§ Raw data

NORSAT 41 62702U 25009CX  26145.15437990  .00001733  00000+0  16395-3 0  99992 62702  97.7046 224.2640 0003154 106.3322 253.8246 14.94943725 73921

JSON: /api/v1/satellites/62702 · /tle

For live sub-satellite position, see the globe view (requires WebGL).

§ Visibility from observer

Set your observer location to see the next 7 days of passes ≥ 10°. The values pass through the URL so the page stays shareable.

No JS? Fill the form by hand. The geolocation button needs JavaScript.